| time (UTC) | temp F | wind direction | speed MPH | gust MPH | rain 1hr in | rain 24hr in | rain mn in | humidity % | barometer mb |
| 20260507173042 | 53 | 288 | 7.0 | 16.0 | 0.00 | 0.00 | 0.00 | 51 | 1012.0 |
| 20260507171543 | 52 | 352 | 8.0 | 16.0 | 0.00 | 0.00 | 0.00 | 52 | 1012.1 |
| 20260507170049 | 53 | 348 | 9.0 | 16.0 | 0.00 | 0.00 | 0.00 | 50 | 1012.4 |
| 20260507164543 | 53 | 5 | 7.0 | 12.0 | 0.00 | 0.00 | 0.00 | 53 | 1012.5 |
| 20260507163045 | 52 | 248 | 8.0 | 16.0 | 0.00 | 0.00 | 0.00 | 52 | 1012.8 |
| 20260507161543 | 53 | 279 | 5.0 | 11.0 | 0.00 | 0.00 | 0.00 | 55 | 1012.9 |
| 20260507160044 | 51 | 323 | 5.0 | 18.0 | 0.00 | 0.00 | 0.00 | 50 | 1012.9 |
| 20260507154547 | 52 | 319 | 7.0 | 16.0 | 0.00 | 0.00 | 0.00 | 51 | 1013.0 |
| 20260507153054 | 50 | 72 | 3.0 | 15.0 | 0.00 | 0.00 | 0.00 | 51 | 1013.1 |
| 20260507151543 | 50 | 352 | 3.0 | 15.0 | 0.00 | 0.00 | 0.00 | 54 | 1013.2 |
| 20260507150045 | 50 | 276 | 0.0 | 8.0 | 0.00 | 0.00 | 0.00 | 58 | 1013.3 |
| 20260507144548 | 50 | 281 | 7.0 | 13.0 | 0.00 | 0.00 | 0.00 | 57 | 1013.7 |
| 20260507143047 | 50 | 326 | 6.0 | 13.0 | 0.00 | 0.00 | 0.00 | 60 | 1013.8 |
| 20260507141552 | 49 | 300 | 4.0 | 10.0 | 0.00 | 0.00 | 0.00 | 58 | 1014.0 |
| 20260507140106 | 49 | 267 | 7.0 | 14.0 | 0.00 | 0.00 | 0.00 | 57 | 1014.3 |
| 20260507134550 | 48 | 317 | 6.0 | 12.0 | 0.00 | 0.00 | 0.00 | 54 | 1014.4 |
| 20260507133049 | 48 | 304 | 8.0 | 15.0 | 0.00 | 0.00 | 0.00 | 54 | 1014.4 |
| 20260507131600 | 47 | 292 | 8.0 | 13.0 | 0.00 | 0.00 | 0.00 | 54 | 1014.3 |
| 20260507130051 | 47 | 309 | 6.0 | 12.0 | 0.00 | 0.00 | 0.00 | 59 | 1014.3 |
| 20260507124603 | 46 | 288 | 7.0 | 11.0 | 0.00 | 0.01 | 0.00 | 58 | 1014.3 |
| 20260507123053 | 45 | 269 | 5.0 | 11.0 | 0.00 | 0.01 | 0.00 | 64 | 1014.4 |
| 20260507121550 | 43 | 311 | 1.0 | 4.0 | 0.00 | 0.01 | 0.00 | 77 | 1014.4 |
| 20260507120051 | 41 | 279 | 0.0 | 2.0 | 0.00 | 0.01 | 0.00 | 85 | 1014.4 |
| 20260507114550 | 39 | 0 | 0.0 | 2.0 | 0.00 | 0.04 | 0.00 | 87 | 1014.5 |
| 20260507113047 | 38 | 239 | 2.0 | 4.0 | 0.00 | 0.04 | 0.00 | 87 | 1014.3 |
| 20260507111553 | 37 | 229 | 1.0 | 4.0 | 0.00 | 0.04 | 0.00 | 87 | 1014.0 |
| 20260507110049 | 37 | 275 | 1.0 | 4.0 | 0.00 | 0.04 | 0.00 | 87 | 1013.8 |
| 20260507104549 | 36 | 0 | 0.0 | 0.0 | 0.00 | 0.12 | 0.00 | 87 | 1013.6 |
| 20260507103052 | 36 | 0 | 0.0 | 0.0 | 0.00 | 0.12 | 0.00 | 86 | 1013.7 |
| 20260507101548 | 36 | 275 | 1.0 | 4.0 | 0.00 | 0.12 | 0.00 | 85 | 1013.4 |
| 20260507100049 | 37 | 246 | 0.0 | 3.0 | 0.00 | 0.12 | 0.00 | 83 | 1013.5 |
| 20260507094544 | 38 | 0 | 0.0 | 0.0 | 0.00 | 0.16 | 0.00 | 82 | 1013.5 |
| 20260507093045 | 39 | 0 | 0.0 | 0.0 | 0.00 | 0.16 | 0.00 | 81 | 1013.5 |
| 20260507091548 | 40 | 0 | 0.0 | 0.0 | 0.00 | 0.16 | 0.00 | 79 | 1013.6 |
| 20260507090047 | 40 | 0 | 0.0 | 0.0 | 0.00 | 0.16 | 0.00 | 78 | 1013.5 |
| 20260507084552 | 41 | 0 | 0.0 | 0.0 | 0.00 | 0.16 | 0.00 | 78 | 1013.4 |
| 20260507083049 | 42 | 0 | 0.0 | 0.0 | 0.00 | 0.16 | 0.00 | 75 | 1013.5 |
| 20260507081542 | 43 | 0 | 0.0 | 0.0 | 0.00 | 0.16 | 0.00 | 74 | 1013.6 |
| 20260507080134 | 43 | 0 | 0.0 | 0.0 | 0.00 | 0.16 | 0.00 | 72 | 1013.5 |
| 20260507074552 | 43 | 0 | 0.0 | 0.0 | 0.00 | 0.16 | 0.00 | 70 | 1013.5 |
| 20260507073050 | 43 | 0 | 0.0 | 3.0 | 0.00 | 0.16 | 0.00 | 69 | 1013.5 |
| 20260507071600 | 43 | 0 | 0.0 | 6.0 | 0.00 | 0.16 | 0.00 | 69 | 1013.4 |
| 20260507070046 | 44 | 12 | 3.0 | 11.0 | 0.00 | 0.16 | 0.00 | 70 | 1013.4 |
| 20260507064546 | 44 | 334 | 5.0 | 11.0 | 0.00 | 0.16 | 0.00 | 71 | 1013.2 |
| 20260507063046 | 44 | 324 | 7.0 | 13.0 | 0.00 | 0.16 | 0.00 | 71 | 1013.3 |
| 20260507061546 | 44 | 313 | 5.0 | 11.0 | 0.00 | 0.16 | 0.00 | 75 | 1013.7 |
| 20260507060044 | 44 | 323 | 3.0 | 10.0 | 0.00 | 0.16 | 0.00 | 76 | 1013.8 |
| 20260507054551 | 44 | 292 | 4.0 | 10.0 | 0.00 | 0.16 | 0.00 | 75 | 1013.9 |
| 20260507053047 | 45 | 348 | 4.0 | 11.0 | 0.00 | 0.16 | 0.00 | 75 | 1014.1 |
| 20260507051544 | 45 | 338 | 2.0 | 8.0 | 0.00 | 0.16 | 0.00 | 79 | 1014.0 |
| 20260507050047 | 45 | 352 | 1.0 | 8.0 | 0.00 | 0.16 | 0.00 | 79 | 1014.1 |
| 20260507044546 | 45 | 17 | 3.0 | 8.0 | 0.00 | 0.16 | 0.00 | 79 | 1014.1 |
| 20260507043044 | 45 | 360 | 1.0 | 4.0 | 0.00 | 0.16 | 0.00 | 79 | 1014.0 |
| 20260507041547 | 46 | 330 | 2.0 | 8.0 | 0.00 | 0.16 | 0.00 | 79 | 1014.1 |
| 20260507040056 | 46 | 0 | 1.0 | 4.0 | 0.00 | 0.16 | 0.00 | 80 | 1014.2 |
| 20260507034544 | 46 | 11 | 0.0 | 4.0 | 0.00 | 0.16 | 0.16 | 82 | 1014.1 |
| 20260507033043 | 46 | 5 | 3.0 | 6.0 | 0.00 | 0.16 | 0.16 | 82 | 1014.2 |
| 20260507031545 | 47 | 311 | 2.0 | 5.0 | 0.00 | 0.16 | 0.16 | 85 | 1014.0 |
| 20260507030043 | 47 | 0 | 0.0 | 3.0 | 0.00 | 0.16 | 0.16 | 87 | 1013.8 |
| 20260507024550 | 47 | 9 | 2.0 | 5.0 | 0.00 | 0.16 | 0.16 | 87 | 1013.7 |
| 20260507023040 | 47 | 348 | 2.0 | 4.0 | 0.00 | 0.16 | 0.16 | 87 | 1013.7 |
| 20260507021547 | 47 | 328 | 2.0 | 4.0 | 0.00 | 0.16 | 0.16 | 87 | 1013.7 |
| 20260507020100 | 47 | 309 | 2.0 | 5.0 | 0.00 | 0.16 | 0.16 | 87 | 1013.2 |
| 20260507014559 | 48 | 336 | 2.0 | 5.0 | 0.00 | 0.16 | 0.16 | 87 | 1013.1 |
| 20260507013049 | 48 | 0 | 0.0 | 6.0 | 0.00 | 0.16 | 0.16 | 87 | 1013.3 |
| 20260507011553 | 47 | 323 | 2.0 | 6.0 | 0.00 | 0.16 | 0.16 | 87 | 1012.9 |
| 20260507010049 | 48 | 336 | 4.0 | 8.0 | 0.00 | 0.16 | 0.16 | 88 | 1013.3 |
| 20260507004542 | 48 | 352 | 3.0 | 5.0 | 0.00 | 0.16 | 0.16 | 88 | 1013.2 |
| 20260507003049 | 48 | 291 | 2.0 | 7.0 | 0.00 | 0.16 | 0.16 | 88 | 1013.7 |
| 20260507001605 | 48 | 288 | 6.0 | 9.0 | 0.00 | 0.16 | 0.16 | 87 | 1013.7 |
| 20260507000058 | 48 | 284 | 4.0 | 9.0 | 0.00 | 0.16 | 0.16 | 87 | 1013.3 |
| 20260506234552 | 48 | 271 | 3.0 | 7.0 | 0.00 | 0.16 | 0.16 | 88 | 1013.3 |
| 20260506233048 | 48 | 0 | 1.0 | 11.0 | 0.00 | 0.16 | 0.16 | 87 | 1013.1 |
| 20260506231549 | 48 | 314 | 3.0 | 9.0 | 0.00 | 0.16 | 0.16 | 87 | 1013.0 |
| 20260506230052 | 48 | 316 | 7.0 | 13.0 | 0.00 | 0.16 | 0.16 | 87 | 1012.5 |
| 20260506224550 | 48 | 311 | 9.0 | 14.0 | 0.00 | 0.16 | 0.16 | 87 | 1012.4 |
| 20260506223049 | 48 | 338 | 5.0 | 12.0 | 0.00 | 0.16 | 0.16 | 90 | 1012.5 |
| 20260506221551 | 48 | 360 | 6.0 | 14.0 | 0.00 | 0.16 | 0.16 | 90 | 1012.4 |
| 20260506220058 | 49 | 300 | 6.0 | 11.0 | 0.00 | 0.16 | 0.16 | 90 | 1012.3 |
| 20260506214547 | 49 | 302 | 5.0 | 15.0 | 0.00 | 0.16 | 0.16 | 90 | 1012.1 |
| 20260506213055 | 49 | 281 | 5.0 | 9.0 | 0.00 | 0.16 | 0.16 | 90 | 1011.9 |
| 20260506211550 | 49 | 315 | 7.0 | 13.0 | 0.00 | 0.16 | 0.16 | 92 | 1011.7 |
| 20260506210100 | 49 | 321 | 7.0 | 11.0 | 0.00 | 0.16 | 0.16 | 93 | 1011.5 |
| 20260506204550 | 49 | 317 | 5.0 | 10.0 | 0.00 | 0.16 | 0.16 | 93 | 1011.2 |
| 20260506203130 | 49 | 286 | 6.0 | 15.0 | 0.00 | 0.16 | 0.16 | 93 | 1011.0 |
| 20260506201549 | 49 | 304 | 7.0 | 13.0 | 0.00 | 0.16 | 0.16 | 94 | 1011.0 |
| 20260506200050 | 49 | 331 | 7.0 | 13.0 | 0.00 | 0.16 | 0.16 | 94 | 1010.9 |
| 20260506194550 | 49 | 296 | 8.0 | 15.0 | 0.00 | 0.16 | 0.16 | 94 | 1011.0 |
| 20260506193048 | 49 | 277 | 6.0 | 14.0 | 0.00 | 0.16 | 0.16 | 94 | 1010.8 |
| 20260506191551 | 49 | 248 | 7.0 | 14.0 | 0.00 | 0.16 | 0.16 | 93 | 1011.0 |
| 20260506190057 | 49 | 339 | 9.0 | 17.0 | 0.00 | 0.16 | 0.16 | 93 | 1010.8 |
| 20260506184554 | 49 | 303 | 10.0 | 20.0 | 0.00 | 0.16 | 0.16 | 92 | 1010.7 |
| 20260506183044 | 50 | 308 | 12.0 | 19.0 | 0.00 | 0.16 | 0.16 | 91 | 1010.7 |
| 20260506181542 | 52 | 304 | 7.0 | 14.0 | 0.00 | 0.16 | 0.16 | 92 | 1010.6 |
| 20260506180054 | 52 | 282 | 9.0 | 15.0 | 0.00 | 0.16 | 0.16 | 92 | 1010.5 |
| 20260506174559 | 52 | 288 | 11.0 | 20.0 | 0.00 | 0.16 | 0.16 | 91 | 1010.1 |